JLY1182 SBBR-SBRB

Flight info

Callsign JLY1182
Flight time 3h 19m
Altitude 32000
Route PABUM UZ98 BITOV/N0452F340 UZ98 BUVKI UZ76 ESMAL
Aircraft B738/M-SDE2E3FGHIRWXY/LB1

Departure

Time 2026-04-20 02:30
Airport Presidente Juscelino Kubitschek International Airport (SBBR)

Arrival

Time 2026-04-20 05:50
Airport Rio Branco-Plácido de Castro International Airport (SBRB)
Time Latitude Longitude Altitude Speed Heading
2026-04-20 02:13 -15.86731 -47.92025 3474 ft 0 kts 196°
2026-04-20 02:23 -15.86729 -47.92024 3476 ft 3 kts 196°
2026-04-20 02:24 -15.86704 -47.92017 3474 ft 4 kts 196°
2026-04-20 02:24 -15.86678 -47.92009 3472 ft 4 kts 196°
2026-04-20 02:24 -15.86653 -47.92001 3473 ft 4 kts 199°
2026-04-20 02:24 -15.86631 -47.91988 3473 ft 4 kts 237°
2026-04-20 02:25 -15.86622 -47.91964 3472 ft 2 kts 265°
2026-04-20 02:25 -15.86622 -47.91962 3472 ft 1 kts 265°
2026-04-20 02:26 -15.86623 -47.91970 3472 ft 5 kts 265°
2026-04-20 02:27 -15.86627 -47.92033 3476 ft 12 kts 266°
2026-04-20 02:27 -15.86633 -47.92123 3475 ft 15 kts 266°
2026-04-20 02:27 -15.86600 -47.92239 3470 ft 15 kts 296°
2026-04-20 02:27 -15.86547 -47.92330 3472 ft 17 kts 296°
2026-04-20 02:28 -15.86533 -47.92467 3475 ft 22 kts 266°
2026-04-20 02:28 -15.86545 -47.92655 3464 ft 19 kts 266°
2026-04-20 02:28 -15.86486 -47.92765 3459 ft 22 kts 355°
2026-04-20 02:28 -15.86357 -47.92688 3459 ft 20 kts 70°
2026-04-20 02:29 -15.86350 -47.92642 3458 ft 0 kts 88°
2026-04-20 02:29 -15.86350 -47.92639 3460 ft 0 kts 86°
2026-04-20 02:29 -15.86350 -47.92638 3460 ft 2 kts 86°
2026-04-20 02:29 -15.86337 -47.92436 3464 ft 61 kts 86°
2026-04-20 02:30 -15.86293 -47.91759 3465 ft 125 kts 86°
2026-04-20 02:30 -15.86223 -47.90660 3500 ft 177 kts 86°
2026-04-20 02:30 -15.86131 -47.89253 3800 ft 205 kts 88°
2026-04-20 02:30 -15.86042 -47.87795 4709 ft 194 kts 82°
2026-04-20 02:31 -15.85484 -47.86595 5611 ft 192 kts 43°
2026-04-20 02:31 -15.84209 -47.85974 5873 ft 220 kts
2026-04-20 02:31 -15.82611 -47.86130 6063 ft 247 kts 341°
2026-04-20 02:31 -15.81069 -47.87088 6270 ft 273 kts 316°
2026-04-20 02:32 -15.79845 -47.88687 6623 ft 290 kts 305°
2026-04-20 02:32 -15.78701 -47.90440 7211 ft 296 kts 304°
2026-04-20 02:32 -15.77554 -47.92222 7899 ft 298 kts 303°
2026-04-20 02:32 -15.76390 -47.94011 8604 ft 300 kts 304°
2026-04-20 02:33 -15.75203 -47.95809 9277 ft 304 kts 304°
2026-04-20 02:33 -15.73987 -47.97628 9926 ft 309 kts 304°
2026-04-20 02:33 -15.72748 -47.99464 10488 ft 316 kts 304°
2026-04-20 02:33 -15.71436 -48.01395 10626 ft 338 kts 304°
2026-04-20 02:34 -15.70039 -48.03442 10790 ft 358 kts 304°
2026-04-20 02:34 -15.68568 -48.05588 11108 ft 370 kts 305°
2026-04-20 02:34 -15.67065 -48.07776 11660 ft 373 kts 305°
2026-04-20 02:34 -15.66068 -48.09224 12081 ft 374 kts 305°
2026-04-20 02:35 -15.64041 -48.12166 12902 ft 376 kts 305°
2026-04-20 02:35 -15.63031 -48.13630 13282 ft 378 kts 305°
2026-04-20 02:35 -15.61498 -48.15853 13843 ft 380 kts 305°
2026-04-20 02:35 -15.59951 -48.18096 14332 ft 383 kts 305°
2026-04-20 02:36 -15.57887 -48.21086 14961 ft 387 kts 305°
2026-04-20 02:36 -15.56824 -48.22625 15280 ft 388 kts 305°
2026-04-20 02:36 -15.55264 -48.24885 15742 ft 391 kts 305°
2026-04-20 02:36 -15.53674 -48.27187 16218 ft 394 kts 305°
2026-04-20 02:37 -15.52075 -48.29501 16700 ft 396 kts 305°
2026-04-20 02:37 -15.50466 -48.31829 17148 ft 399 kts 304°
2026-04-20 02:37 -15.48845 -48.34175 17597 ft 401 kts 304°
2026-04-20 02:37 -15.47210 -48.36539 18044 ft 404 kts 304°
2026-04-20 02:38 -15.45566 -48.38915 18449 ft 406 kts 304°
2026-04-20 02:38 -15.43915 -48.41301 18842 ft 408 kts 304°
2026-04-20 02:38 -15.42256 -48.43698 19220 ft 410 kts 304°
2026-04-20 02:38 -15.40589 -48.46106 19595 ft 412 kts 304°
2026-04-20 02:39 -15.38913 -48.48525 19953 ft 414 kts 304°
2026-04-20 02:39 -15.37229 -48.50956 20315 ft 417 kts 304°
2026-04-20 02:39 -15.35534 -48.53401 20677 ft 419 kts 304°
2026-04-20 02:39 -15.33833 -48.55855 21058 ft 420 kts 304°
2026-04-20 02:40 -15.32126 -48.58316 21410 ft 422 kts 304°
2026-04-20 02:40 -15.30431 -48.60759 21740 ft 424 kts 304°
2026-04-20 02:40 -15.28702 -48.63251 22070 ft 427 kts 304°
2026-04-20 02:40 -15.26967 -48.65750 22395 ft 429 kts 304°
2026-04-20 02:41 -15.25219 -48.68268 22716 ft 431 kts 304°
2026-04-20 02:41 -15.23464 -48.70794 23025 ft 433 kts 304°
2026-04-20 02:41 -15.21702 -48.73330 23335 ft 435 kts 304°
2026-04-20 02:41 -15.19928 -48.75883 23627 ft 437 kts 304°
2026-04-20 02:42 -15.18148 -48.78443 23885 ft 439 kts 304°
2026-04-20 02:42 -15.16365 -48.81006 24167 ft 440 kts 304°
2026-04-20 02:42 -15.14571 -48.83585 24452 ft 440 kts 304°
2026-04-20 02:42 -15.12783 -48.86155 24752 ft 440 kts 304°
2026-04-20 02:43 -15.10989 -48.88733 24998 ft 442 kts 304°
2026-04-20 02:43 -15.09189 -48.91317 25230 ft 444 kts 304°
2026-04-20 02:43 -15.07385 -48.93909 25466 ft 445 kts 303°
2026-04-20 02:43 -15.05611 -48.96537 25715 ft 446 kts 302°
2026-04-20 02:44 -15.03868 -48.99193 25959 ft 447 kts 302°
2026-04-20 02:44 -15.02131 -49.01864 26197 ft 448 kts 301°
2026-04-20 02:44 -15.00411 -49.04512 26412 ft 449 kts 301°
2026-04-20 02:44 -14.98666 -49.07190 26637 ft 450 kts 301°
2026-04-20 02:45 -14.96911 -49.09875 26864 ft 451 kts 301°
2026-04-20 02:45 -14.95146 -49.12567 27075 ft 453 kts 301°
2026-04-20 02:45 -14.93374 -49.15264 27282 ft 454 kts 301°
2026-04-20 02:45 -14.91589 -49.17978 27493 ft 456 kts 301°
2026-04-20 02:46 -14.89807 -49.20687 27711 ft 457 kts 301°
2026-04-20 02:46 -14.88018 -49.23404 27905 ft 458 kts 301°
2026-04-20 02:46 -14.86222 -49.26132 28110 ft 459 kts 301°
2026-04-20 02:46 -14.84421 -49.28867 28298 ft 460 kts 301°
2026-04-20 02:47 -14.82616 -49.31608 28496 ft 461 kts 301°
2026-04-20 02:47 -14.80809 -49.34351 28680 ft 463 kts 301°
2026-04-20 02:47 -14.79020 -49.37066 28918 ft 462 kts 301°
2026-04-20 02:47 -14.77212 -49.39807 29229 ft 461 kts 301°
2026-04-20 02:48 -14.75412 -49.42535 29564 ft 459 kts 301°
2026-04-20 02:48 -14.73615 -49.45259 29804 ft 459 kts 301°
2026-04-20 02:48 -14.71817 -49.47985 29994 ft 460 kts 301°
2026-04-20 02:48 -14.70018 -49.50710 30209 ft 459 kts 301°
2026-04-20 02:49 -14.68219 -49.53433 30474 ft 458 kts 301°
2026-04-20 02:49 -14.66431 -49.56142 30746 ft 456 kts 301°
2026-04-20 02:49 -14.64643 -49.58849 30992 ft 455 kts 301°
2026-04-20 02:49 -14.62863 -49.61545 31222 ft 455 kts 301°
2026-04-20 02:50 -14.61084 -49.64241 31470 ft 453 kts 300°
2026-04-20 02:50 -14.59307 -49.66931 31728 ft 452 kts 300°
2026-04-20 02:50 -14.57539 -49.69607 31982 ft 451 kts 300°
2026-04-20 02:50 -14.55772 -49.72281 32235 ft 450 kts 300°
2026-04-20 02:51 -14.54009 -49.74948 32478 ft 449 kts 300°
2026-04-20 02:51 -14.52251 -49.77608 32723 ft 449 kts 300°
2026-04-20 02:51 -14.50492 -49.80267 32973 ft 448 kts 300°
2026-04-20 02:51 -14.48742 -49.82912 33236 ft 446 kts 300°
2026-04-20 02:52 -14.46990 -49.85558 33496 ft 445 kts 300°
2026-04-20 02:52 -14.45247 -49.88190 33731 ft 445 kts 300°
2026-04-20 02:52 -14.43502 -49.90825 33940 ft 444 kts 300°
2026-04-20 02:53 -14.40005 -49.96105 33949 ft 446 kts 300°
2026-04-20 02:53 -14.36516 -50.01364 33952 ft 442 kts 300°
2026-04-20 02:54 -14.33055 -50.06578 33943 ft 439 kts 300°
2026-04-20 02:54 -14.29610 -50.11769 33949 ft 438 kts 300°
2026-04-20 02:55 -14.26185 -50.16925 33952 ft 438 kts 300°
2026-04-20 02:55 -14.22736 -50.22115 33957 ft 440 kts 300°
2026-04-20 02:56 -14.19265 -50.27335 33956 ft 443 kts 300°
2026-04-20 02:56 -14.15772 -50.32583 33955 ft 446 kts 300°
2026-04-20 02:57 -14.12254 -50.37866 33944 ft 448 kts 300°
2026-04-20 02:57 -14.08719 -50.43169 33942 ft 450 kts 301°
2026-04-20 02:58 -14.05167 -50.48494 33952 ft 451 kts 301°
2026-04-20 02:58 -14.01611 -50.53823 33942 ft 452 kts 301°
2026-04-20 02:59 -13.98078 -50.59113 33942 ft 451 kts 301°
2026-04-20 02:59 -13.94527 -50.64427 33942 ft 450 kts 301°
2026-04-20 03:00 -13.90988 -50.69720 33943 ft 448 kts 301°
2026-04-20 03:00 -13.87456 -50.75000 33946 ft 447 kts 301°
2026-04-20 03:01 -13.83931 -50.80267 33941 ft 446 kts 301°
2026-04-20 03:01 -13.80411 -50.85521 33956 ft 445 kts 301°
2026-04-20 03:02 -13.76897 -50.90766 33946 ft 446 kts 302°
2026-04-20 03:02 -13.73372 -50.96022 33950 ft 446 kts 302°
2026-04-20 03:03 -13.69847 -51.01275 33943 ft 447 kts 302°
2026-04-20 03:03 -13.66315 -51.06536 33951 ft 447 kts 302°
2026-04-20 03:04 -13.62772 -51.11810 33946 ft 449 kts 302°
2026-04-20 03:04 -13.59244 -51.17060 33956 ft 450 kts 302°
2026-04-20 03:05 -13.55679 -51.22360 33956 ft 451 kts 302°
2026-04-20 03:05 -13.52903 -51.28069 33952 ft 445 kts 284°
2026-04-20 03:06 -13.51505 -51.34252 33950 ft 444 kts 280°
2026-04-20 03:06 -13.50200 -51.40456 33956 ft 445 kts 280°
2026-04-20 03:07 -13.48860 -51.46659 33947 ft 445 kts 281°
2026-04-20 03:07 -13.47494 -51.52869 33948 ft 445 kts 281°
2026-04-20 03:08 -13.46122 -51.59070 33954 ft 445 kts 281°
2026-04-20 03:08 -13.44748 -51.65273 33956 ft 445 kts 281°
2026-04-20 03:09 -13.43384 -51.71432 33967 ft 445 kts 281°
2026-04-20 03:09 -13.42009 -51.77631 33959 ft 445 kts 281°
2026-04-20 03:10 -13.40634 -51.83823 33964 ft 445 kts 281°
2026-04-20 03:10 -13.39257 -51.90018 33973 ft 445 kts 281°
2026-04-20 03:11 -13.37879 -51.96214 33972 ft 444 kts 281°
2026-04-20 03:11 -13.36502 -52.02396 33968 ft 444 kts 281°
2026-04-20 03:12 -13.35221 -52.08591 33978 ft 443 kts 278°
2026-04-20 03:12 -13.34128 -52.14826 33969 ft 443 kts 278°
2026-04-20 03:13 -13.33033 -52.21043 33976 ft 443 kts 278°
2026-04-20 03:13 -13.31907 -52.27265 33980 ft 443 kts 278°
2026-04-20 03:14 -13.30779 -52.33444 33981 ft 443 kts 278°
2026-04-20 03:14 -13.29643 -52.39663 33977 ft 443 kts 278°
2026-04-20 03:15 -13.28498 -52.45925 33980 ft 444 kts 278°
2026-04-20 03:15 -13.27345 -52.52111 33973 ft 444 kts 279°
2026-04-20 03:16 -13.26136 -52.58349 33977 ft 444 kts 279°
2026-04-20 03:16 -13.24927 -52.64565 33979 ft 444 kts 279°
2026-04-20 03:17 -13.23721 -52.70790 33971 ft 445 kts 279°
2026-04-20 03:17 -13.22515 -52.77022 33966 ft 445 kts 279°
2026-04-20 03:18 -13.21309 -52.83247 33982 ft 444 kts 279°
2026-04-20 03:18 -13.20102 -52.89471 33975 ft 445 kts 279°
2026-04-20 03:19 -13.18893 -52.95694 33974 ft 445 kts 279°
2026-04-20 03:19 -13.17682 -53.01919 33974 ft 445 kts 279°
2026-04-20 03:20 -13.16469 -53.08148 33984 ft 445 kts 279°
2026-04-20 03:20 -13.15262 -53.14335 33976 ft 445 kts 279°
2026-04-20 03:21 -13.14045 -53.20567 33979 ft 446 kts 279°
2026-04-20 03:21 -13.12825 -53.26805 33972 ft 446 kts 279°
2026-04-20 03:22 -13.11604 -53.33044 33979 ft 446 kts 279°
2026-04-20 03:22 -13.10379 -53.39290 33970 ft 447 kts 279°
2026-04-20 03:23 -13.09155 -53.45531 33979 ft 447 kts 279°
2026-04-20 03:23 -13.08125 -53.50771 33979 ft 447 kts 279°
2026-04-20 03:24 -13.06912 -53.56984 33973 ft 447 kts 279°
2026-04-20 03:24 -13.05687 -53.63283 33975 ft 447 kts 279°
2026-04-20 03:25 -13.04478 -53.69493 33972 ft 447 kts 279°
2026-04-20 03:25 -13.03259 -53.75744 33970 ft 447 kts 279°
2026-04-20 03:26 -13.02038 -53.81994 33971 ft 447 kts 280°
2026-04-20 03:26 -13.00815 -53.88243 33977 ft 447 kts 280°
2026-04-20 03:27 -12.99589 -53.94501 33973 ft 448 kts 280°
2026-04-20 03:27 -12.98361 -54.00764 33969 ft 448 kts 280°
2026-04-20 03:28 -12.97139 -54.06990 33974 ft 449 kts 280°
2026-04-20 03:28 -12.95284 -54.16400 33974 ft 450 kts 280°
2026-04-20 03:29 -12.94024 -54.22684 33975 ft 450 kts 280°
2026-04-20 03:29 -12.92760 -54.28973 33972 ft 451 kts 280°
2026-04-20 03:30 -12.91495 -54.35269 33966 ft 451 kts 280°
2026-04-20 03:30 -12.90230 -54.41563 33968 ft 451 kts 280°
2026-04-20 03:31 -12.88964 -54.47854 33967 ft 451 kts 280°
2026-04-20 03:31 -12.87697 -54.54145 33965 ft 450 kts 280°
2026-04-20 03:32 -12.86430 -54.60430 33970 ft 450 kts 280°
2026-04-20 03:32 -12.85169 -54.66709 33957 ft 450 kts 280°
2026-04-20 03:33 -12.83908 -54.72992 33971 ft 450 kts 280°
2026-04-20 03:33 -12.82643 -54.79281 33965 ft 450 kts 280°
2026-04-20 03:34 -12.81377 -54.85571 33969 ft 451 kts 280°
2026-04-20 03:34 -12.80117 -54.91819 33966 ft 451 kts 280°
2026-04-20 03:35 -12.78846 -54.98112 33970 ft 451 kts 280°
2026-04-20 03:35 -12.77572 -55.04415 33967 ft 451 kts 280°
2026-04-20 03:36 -12.76296 -55.10717 33972 ft 452 kts 280°
2026-04-20 03:36 -12.75020 -55.17015 33967 ft 452 kts 280°
2026-04-20 03:37 -12.73742 -55.23312 33965 ft 452 kts 280°
2026-04-20 03:37 -12.72462 -55.29611 33962 ft 452 kts 280°
2026-04-20 03:38 -12.71181 -55.35908 33965 ft 451 kts 280°
2026-04-20 03:38 -12.69899 -55.42202 33965 ft 451 kts 280°
2026-04-20 03:39 -12.68614 -55.48501 33970 ft 451 kts 280°
2026-04-20 03:39 -12.67337 -55.54753 33966 ft 451 kts 281°
2026-04-20 03:40 -12.66051 -55.61047 33970 ft 451 kts 281°
2026-04-20 03:40 -12.64761 -55.67345 33963 ft 451 kts 281°
2026-04-20 03:41 -12.63471 -55.73639 33966 ft 452 kts 281°
2026-04-20 03:41 -12.62179 -55.79937 33962 ft 452 kts 281°
2026-04-20 03:42 -12.60884 -55.86237 33961 ft 452 kts 281°
2026-04-20 03:42 -12.59590 -55.92528 33964 ft 452 kts 281°
2026-04-20 03:43 -12.58293 -55.98826 33960 ft 452 kts 281°
2026-04-20 03:43 -12.56994 -56.05124 33961 ft 452 kts 281°
2026-04-20 03:44 -12.55701 -56.11386 33959 ft 452 kts 281°
2026-04-20 03:44 -12.54400 -56.17682 33965 ft 452 kts 281°
2026-04-20 03:45 -12.53099 -56.23971 33964 ft 452 kts 281°
2026-04-20 03:45 -12.51816 -56.30266 33973 ft 452 kts 281°
2026-04-20 03:46 -12.50538 -56.36563 33962 ft 452 kts 281°
2026-04-20 03:46 -12.49259 -56.42857 33965 ft 452 kts 281°
2026-04-20 03:47 -12.47976 -56.49152 33961 ft 452 kts 281°
2026-04-20 03:47 -12.46691 -56.55443 33959 ft 452 kts 281°
2026-04-20 03:48 -12.45404 -56.61739 33965 ft 452 kts 281°
2026-04-20 03:48 -12.44117 -56.68032 33959 ft 452 kts 281°
2026-04-20 03:49 -12.42836 -56.74282 33962 ft 452 kts 281°
2026-04-20 03:49 -12.41547 -56.80570 33964 ft 452 kts 281°
2026-04-20 03:50 -12.40253 -56.86861 33958 ft 452 kts 281°
2026-04-20 03:50 -12.38958 -56.93147 33959 ft 452 kts 281°
2026-04-20 03:51 -12.37661 -56.99436 33960 ft 452 kts 281°
2026-04-20 03:51 -12.36364 -57.05720 33960 ft 452 kts 281°
2026-04-20 03:52 -12.35066 -57.12002 33965 ft 452 kts 281°
2026-04-20 03:52 -12.33766 -57.18290 33965 ft 452 kts 281°
2026-04-20 03:53 -12.32464 -57.24577 33950 ft 452 kts 282°
2026-04-20 03:53 -12.31160 -57.30863 33964 ft 452 kts 282°
2026-04-20 03:54 -12.29854 -57.37156 33962 ft 453 kts 282°
2026-04-20 03:54 -12.28545 -57.43452 33963 ft 453 kts 282°
2026-04-20 03:55 -12.27233 -57.49758 33967 ft 453 kts 282°
2026-04-20 03:55 -12.25920 -57.56065 33959 ft 454 kts 282°
2026-04-20 03:56 -12.24612 -57.62338 33952 ft 454 kts 282°
2026-04-20 03:56 -12.23293 -57.68656 33962 ft 454 kts 282°
2026-04-20 03:57 -12.21976 -57.74967 33949 ft 454 kts 282°
2026-04-20 03:57 -12.20658 -57.81273 33949 ft 453 kts 282°
2026-04-20 03:58 -12.19341 -57.87567 33960 ft 453 kts 282°
2026-04-20 03:58 -12.18023 -57.93858 33952 ft 452 kts 282°
2026-04-20 03:59 -12.16708 -58.00130 33944 ft 451 kts 282°
2026-04-20 03:59 -12.15392 -58.06402 33956 ft 451 kts 282°
2026-04-20 04:00 -12.14076 -58.12661 33957 ft 450 kts 282°
2026-04-20 04:00 -12.12753 -58.18916 33948 ft 450 kts 282°
2026-04-20 04:01 -12.11426 -58.25175 33949 ft 450 kts 282°
2026-04-20 04:01 -12.10108 -58.31388 33959 ft 451 kts 282°
2026-04-20 04:02 -12.08777 -58.37659 33960 ft 452 kts 282°
2026-04-20 04:02 -12.07442 -58.43944 33957 ft 453 kts 282°
2026-04-20 04:03 -12.06103 -58.50238 33957 ft 454 kts 282°
2026-04-20 04:03 -12.04762 -58.56537 33956 ft 454 kts 282°
2026-04-20 04:04 -12.03416 -58.62851 33958 ft 455 kts 282°
2026-04-20 04:04 -12.02069 -58.69159 33957 ft 454 kts 282°
2026-04-20 04:05 -12.00722 -58.75466 33955 ft 454 kts 282°
2026-04-20 04:05 -11.99375 -58.81762 33953 ft 454 kts 282°
2026-04-20 04:06 -11.98027 -58.88055 33955 ft 453 kts 282°
2026-04-20 04:06 -11.96679 -58.94340 33963 ft 452 kts 282°
2026-04-20 04:07 -11.95333 -59.00615 33956 ft 452 kts 282°
2026-04-20 04:07 -11.93987 -59.06879 33966 ft 451 kts 283°
2026-04-20 04:08 -11.92651 -59.13102 33951 ft 451 kts 282°
2026-04-20 04:08 -11.91618 -59.18357 33951 ft 451 kts 281°
2026-04-20 04:09 -11.90258 -59.25664 33965 ft 450 kts 281°
2026-04-20 04:09 -11.89079 -59.31942 33966 ft 450 kts 281°
2026-04-20 04:10 -11.88079 -59.37202 33956 ft 450 kts 281°
2026-04-20 04:10 -11.86880 -59.43481 33963 ft 451 kts 281°
2026-04-20 04:11 -11.85678 -59.49771 33964 ft 452 kts 281°
2026-04-20 04:11 -11.84470 -59.56081 33951 ft 453 kts 281°
2026-04-20 04:12 -11.83259 -59.62403 33958 ft 454 kts 282°
2026-04-20 04:12 -11.82053 -59.68690 33972 ft 455 kts 282°
2026-04-20 04:13 -11.80833 -59.75040 33959 ft 456 kts 282°
2026-04-20 04:13 -11.79610 -59.81401 33958 ft 457 kts 282°
2026-04-20 04:14 -11.78385 -59.87768 33965 ft 457 kts 282°
2026-04-20 04:14 -11.77160 -59.94125 33965 ft 457 kts 282°
2026-04-20 04:15 -11.75933 -60.00483 33957 ft 456 kts 282°
2026-04-20 04:15 -11.74706 -60.06838 33957 ft 456 kts 282°
2026-04-20 04:16 -11.73489 -60.13135 33952 ft 455 kts 281°
2026-04-20 04:16 -11.72265 -60.19465 33952 ft 454 kts 282°
2026-04-20 04:17 -11.71040 -60.25788 33954 ft 454 kts 282°
2026-04-20 04:17 -11.69814 -60.32107 33953 ft 454 kts 282°
2026-04-20 04:18 -11.68589 -60.38416 33955 ft 454 kts 282°
2026-04-20 04:18 -11.67361 -60.44733 33954 ft 454 kts 282°
2026-04-20 04:19 -11.66132 -60.51052 33948 ft 454 kts 282°
2026-04-20 04:19 -11.64899 -60.57375 33956 ft 455 kts 282°
2026-04-20 04:20 -11.63664 -60.63705 33948 ft 455 kts 282°
2026-04-20 04:20 -11.62424 -60.70051 33951 ft 456 kts 282°
2026-04-20 04:21 -11.61183 -60.76398 33945 ft 456 kts 282°
2026-04-20 04:21 -11.59938 -60.82754 33945 ft 457 kts 282°
2026-04-20 04:22 -11.58694 -60.89100 33947 ft 456 kts 282°
2026-04-20 04:22 -11.57448 -60.95449 33942 ft 456 kts 282°
2026-04-20 04:23 -11.56203 -61.01786 33943 ft 456 kts 282°
2026-04-20 04:23 -11.54957 -61.08117 33938 ft 455 kts 282°
2026-04-20 04:24 -11.53720 -61.14399 33940 ft 454 kts 282°
2026-04-20 04:24 -11.52475 -61.20714 33941 ft 454 kts 282°
2026-04-20 04:25 -11.51230 -61.27020 33941 ft 453 kts 282°
2026-04-20 04:25 -11.49933 -61.33309 33941 ft 453 kts 283°
2026-04-20 04:26 -11.48536 -61.39565 33938 ft 452 kts 284°
2026-04-20 04:26 -11.47148 -61.45815 33941 ft 452 kts 283°
2026-04-20 04:27 -11.45769 -61.52079 33936 ft 452 kts 283°
2026-04-20 04:27 -11.44407 -61.58298 33935 ft 452 kts 283°
2026-04-20 04:28 -11.43041 -61.64550 33942 ft 452 kts 283°
2026-04-20 04:28 -11.41671 -61.70808 33936 ft 452 kts 283°
2026-04-20 04:29 -11.40300 -61.77068 33932 ft 453 kts 283°
2026-04-20 04:29 -11.38926 -61.83327 33940 ft 453 kts 283°
2026-04-20 04:30 -11.37550 -61.89592 33945 ft 453 kts 283°
2026-04-20 04:30 -11.36172 -61.95861 33943 ft 453 kts 283°
2026-04-20 04:31 -11.34792 -62.02132 33935 ft 454 kts 283°
2026-04-20 04:31 -11.33410 -62.08413 33931 ft 454 kts 283°
2026-04-20 04:32 -11.32030 -62.14690 33939 ft 454 kts 284°
2026-04-20 04:32 -11.30648 -62.20964 33932 ft 454 kts 284°
2026-04-20 04:33 -11.29261 -62.27229 33929 ft 453 kts 284°
2026-04-20 04:33 -11.27865 -62.33478 33932 ft 452 kts 284°
2026-04-20 04:34 -11.26469 -62.39723 33930 ft 452 kts 284°
2026-04-20 04:34 -11.25085 -62.45913 33931 ft 451 kts 284°
2026-04-20 04:35 -11.23691 -62.52144 33932 ft 450 kts 284°
2026-04-20 04:35 -11.22297 -62.58371 33934 ft 450 kts 284°
2026-04-20 04:36 -11.20205 -62.67704 33936 ft 450 kts 284°
2026-04-20 04:37 -11.18807 -62.73933 33936 ft 451 kts 284°
2026-04-20 04:37 -11.17408 -62.80159 33930 ft 451 kts 284°
2026-04-20 04:38 -11.16007 -62.86388 33936 ft 451 kts 283°
2026-04-20 04:38 -11.14612 -62.92587 33932 ft 452 kts 283°
2026-04-20 04:39 -11.13207 -62.98823 33942 ft 452 kts 283°
2026-04-20 04:39 -11.11798 -63.05073 33935 ft 453 kts 283°
2026-04-20 04:40 -11.10390 -63.11321 33932 ft 453 kts 283°
2026-04-20 04:40 -11.08978 -63.17583 33936 ft 453 kts 284°
2026-04-20 04:41 -11.07566 -63.23835 33930 ft 453 kts 284°
2026-04-20 04:41 -11.06153 -63.30091 33934 ft 453 kts 284°
2026-04-20 04:42 -11.04747 -63.36306 33940 ft 453 kts 284°
2026-04-20 04:42 -11.03333 -63.42551 33940 ft 453 kts 284°
2026-04-20 04:43 -11.01916 -63.48802 33931 ft 453 kts 283°
2026-04-20 04:43 -11.00498 -63.55049 33941 ft 453 kts 283°
2026-04-20 04:44 -10.99077 -63.61305 33936 ft 454 kts 284°
2026-04-20 04:44 -10.97653 -63.67568 33944 ft 454 kts 283°
2026-04-20 04:45 -10.96227 -63.73835 33942 ft 455 kts 283°
2026-04-20 04:45 -10.94798 -63.80110 33938 ft 455 kts 283°
2026-04-20 04:46 -10.93375 -63.86351 33937 ft 455 kts 283°
2026-04-20 04:46 -10.91942 -63.92627 33936 ft 456 kts 283°
2026-04-20 04:47 -10.90506 -63.98915 33928 ft 456 kts 283°
2026-04-20 04:47 -10.89067 -64.05205 33933 ft 456 kts 283°
2026-04-20 04:48 -10.87628 -64.11491 33929 ft 456 kts 283°
2026-04-20 04:48 -10.86188 -64.17777 33925 ft 456 kts 283°
2026-04-20 04:49 -10.84748 -64.24055 33925 ft 456 kts 284°
2026-04-20 04:49 -10.83307 -64.30329 33923 ft 455 kts 284°
2026-04-20 04:50 -10.81867 -64.36596 33925 ft 454 kts 283°
2026-04-20 04:50 -10.80430 -64.42844 33924 ft 454 kts 283°
2026-04-20 04:51 -10.78992 -64.49090 33919 ft 453 kts 283°
2026-04-20 04:51 -10.77556 -64.55320 33922 ft 452 kts 283°
2026-04-20 04:52 -10.76120 -64.61544 33924 ft 451 kts 283°
2026-04-20 04:52 -10.74696 -64.67711 33917 ft 451 kts 283°
2026-04-20 04:53 -10.73261 -64.73918 33923 ft 451 kts 283°
2026-04-20 04:53 -10.71826 -64.80120 33924 ft 451 kts 283°
2026-04-20 04:54 -10.70389 -64.86322 33919 ft 451 kts 283°
2026-04-20 04:54 -10.68949 -64.92535 33921 ft 451 kts 283°
2026-04-20 04:55 -10.67507 -64.98752 33922 ft 452 kts 284°
2026-04-20 04:55 -10.66061 -65.04978 33922 ft 453 kts 284°
2026-04-20 04:56 -10.64611 -65.11215 33922 ft 454 kts 284°
2026-04-20 04:56 -10.63155 -65.17474 33921 ft 456 kts 284°
2026-04-20 04:57 -10.61939 -65.22696 33923 ft 457 kts 284°
2026-04-20 04:57 -10.60234 -65.30011 33919 ft 458 kts 284°
2026-04-20 04:58 -10.58761 -65.36325 33907 ft 459 kts 284°
2026-04-20 04:58 -10.57534 -65.41578 33919 ft 460 kts 284°
2026-04-20 04:59 -10.55846 -65.47843 33916 ft 460 kts 288°
2026-04-20 04:59 -10.54007 -65.54073 33912 ft 460 kts 288°
2026-04-20 05:00 -10.52179 -65.60319 33912 ft 460 kts 288°
2026-04-20 05:00 -10.50385 -65.66553 33915 ft 459 kts 287°
2026-04-20 05:01 -10.48606 -65.72774 33910 ft 457 kts 287°
2026-04-20 05:01 -10.46836 -65.78966 33909 ft 455 kts 287°
2026-04-20 05:02 -10.45084 -65.85083 33908 ft 453 kts 287°
2026-04-20 05:02 -10.43360 -65.91101 33891 ft 431 kts 287°
2026-04-20 05:02 -10.42528 -65.94001 33604 ft 425 kts 287°
2026-04-20 05:03 -10.41710 -65.96853 33324 ft 418 kts 287°
2026-04-20 05:03 -10.40898 -65.99681 32932 ft 415 kts 287°
2026-04-20 05:03 -10.40090 -66.02491 32569 ft 412 kts 287°
2026-04-20 05:03 -10.39290 -66.05275 32210 ft 409 kts 287°
2026-04-20 05:04 -10.38504 -66.08011 31844 ft 407 kts 287°
2026-04-20 05:04 -10.37713 -66.10761 31486 ft 405 kts 286°
2026-04-20 05:04 -10.36925 -66.13500 31106 ft 403 kts 286°
2026-04-20 05:04 -10.36138 -66.16235 30640 ft 404 kts 286°
2026-04-20 05:05 -10.35351 -66.18972 30249 ft 404 kts 286°
2026-04-20 05:05 -10.34565 -66.21702 29909 ft 401 kts 286°
2026-04-20 05:05 -10.33796 -66.24373 29529 ft 398 kts 286°
2026-04-20 05:05 -10.33022 -66.27060 29150 ft 395 kts 286°
2026-04-20 05:06 -10.32255 -66.29722 28751 ft 392 kts 286°
2026-04-20 05:06 -10.31491 -66.32372 28352 ft 390 kts 286°
2026-04-20 05:06 -10.30730 -66.35009 27985 ft 387 kts 287°
2026-04-20 05:06 -10.29975 -66.37627 27607 ft 385 kts 287°
2026-04-20 05:07 -10.29225 -66.40227 27248 ft 382 kts 287°
2026-04-20 05:07 -10.28480 -66.42809 26890 ft 380 kts 287°
2026-04-20 05:07 -10.27740 -66.45373 26514 ft 378 kts 287°
2026-04-20 05:07 -10.27002 -66.47928 26156 ft 376 kts 287°
2026-04-20 05:08 -10.26267 -66.50471 25808 ft 374 kts 287°
2026-04-20 05:08 -10.25537 -66.52999 25457 ft 372 kts 287°
2026-04-20 05:08 -10.24809 -66.55516 25126 ft 370 kts 287°
2026-04-20 05:08 -10.24087 -66.58012 24798 ft 368 kts 287°
2026-04-20 05:09 -10.23367 -66.60501 24461 ft 366 kts 287°
2026-04-20 05:09 -10.22653 -66.62971 24134 ft 364 kts 287°
2026-04-20 05:09 -10.21939 -66.65436 23812 ft 362 kts 287°
2026-04-20 05:09 -10.21230 -66.67884 23495 ft 361 kts 287°
2026-04-20 05:10 -10.20524 -66.70322 23128 ft 359 kts 287°
2026-04-20 05:10 -10.19823 -66.72742 22769 ft 357 kts 287°
2026-04-20 05:10 -10.19125 -66.75152 22415 ft 355 kts 287°
2026-04-20 05:10 -10.18431 -66.77546 22062 ft 353 kts 287°
2026-04-20 05:11 -10.17740 -66.79929 21711 ft 351 kts 287°
2026-04-20 05:11 -10.17062 -66.82269 21375 ft 349 kts 287°
2026-04-20 05:11 -10.16378 -66.84626 21077 ft 346 kts 287°
2026-04-20 05:11 -10.15710 -66.86931 21005 ft 335 kts 287°
2026-04-20 05:12 -10.15060 -66.89170 20879 ft 327 kts 287°
2026-04-20 05:12 -10.14412 -66.91368 20614 ft 324 kts 290°
2026-04-20 05:12 -10.13306 -66.93320 20302 ft 319 kts 315°
2026-04-20 05:12 -10.11541 -66.94632 19999 ft 314 kts 338°
2026-04-20 05:13 -10.09451 -66.95145 19762 ft 308 kts 360°
2026-04-20 05:13 -10.07355 -66.94837 19536 ft 305 kts 21°
2026-04-20 05:13 -10.05533 -66.93767 19309 ft 303 kts 43°
2026-04-20 05:13 -10.04245 -66.92101 19086 ft 301 kts 64°
2026-04-20 05:14 -10.03638 -66.90076 18869 ft 302 kts 83°
2026-04-20 05:14 -10.03727 -66.87947 18651 ft 306 kts 102°
2026-04-20 05:14 -10.04257 -66.85852 18450 ft 308 kts 105°
2026-04-20 05:14 -10.04856 -66.83766 18229 ft 307 kts 105°
2026-04-20 05:15 -10.05466 -66.81687 17974 ft 307 kts 105°
2026-04-20 05:15 -10.06073 -66.79611 17719 ft 307 kts 105°
2026-04-20 05:15 -10.06675 -66.77533 17467 ft 307 kts 105°
2026-04-20 05:15 -10.07272 -66.75452 17222 ft 307 kts 105°
2026-04-20 05:16 -10.07866 -66.73367 16972 ft 306 kts 105°
2026-04-20 05:16 -10.08452 -66.71297 16724 ft 303 kts 105°
2026-04-20 05:16 -10.09030 -66.69255 16468 ft 300 kts 105°
2026-04-20 05:16 -10.09601 -66.67232 16219 ft 297 kts 105°
2026-04-20 05:17 -10.10166 -66.65226 15982 ft 294 kts 105°
2026-04-20 05:17 -10.10727 -66.63237 15738 ft 292 kts 105°
2026-04-20 05:17 -10.11284 -66.61255 15498 ft 291 kts 105°
2026-04-20 05:17 -10.11838 -66.59289 15259 ft 289 kts 105°
2026-04-20 05:18 -10.12389 -66.57329 15025 ft 288 kts 105°
2026-04-20 05:18 -10.12938 -66.55374 14796 ft 287 kts 105°
2026-04-20 05:18 -10.13486 -66.53428 14567 ft 287 kts 105°
2026-04-20 05:18 -10.14032 -66.51483 14341 ft 287 kts 105°
2026-04-20 05:19 -10.14579 -66.49537 14119 ft 287 kts 105°
2026-04-20 05:19 -10.15125 -66.47593 13897 ft 287 kts 105°
2026-04-20 05:19 -10.15673 -66.45643 13669 ft 287 kts 105°
2026-04-20 05:19 -10.16231 -66.43691 13417 ft 288 kts 109°
2026-04-20 05:20 -10.17238 -66.41953 13146 ft 288 kts 134°
2026-04-20 05:20 -10.18803 -66.40741 12911 ft 288 kts 153°
2026-04-20 05:20 -10.20692 -66.40110 12667 ft 287 kts 173°
2026-04-20 05:20 -10.22676 -66.40164 12420 ft 286 kts 194°
2026-04-20 05:21 -10.24498 -66.40928 12170 ft 284 kts 215°
2026-04-20 05:21 -10.25913 -66.42302 11936 ft 282 kts 237°
2026-04-20 05:21 -10.26747 -66.44083 11700 ft 279 kts 256°
2026-04-20 05:21 -10.27021 -66.46018 11463 ft 277 kts 273°
2026-04-20 05:22 -10.26697 -66.47938 11234 ft 275 kts 285°
2026-04-20 05:22 -10.26189 -66.49810 11000 ft 275 kts 287°
2026-04-20 05:22 -10.25655 -66.51673 10761 ft 274 kts 287°
2026-04-20 05:22 -10.25119 -66.53527 10530 ft 273 kts 287°
2026-04-20 05:23 -10.24587 -66.55379 10289 ft 272 kts 287°
2026-04-20 05:23 -10.24061 -66.57220 10077 ft 271 kts 287°
2026-04-20 05:23 -10.23540 -66.59050 9845 ft 269 kts 287°
2026-04-20 05:23 -10.23026 -66.60867 9595 ft 267 kts 287°
2026-04-20 05:24 -10.22515 -66.62672 9344 ft 265 kts 287°
2026-04-20 05:24 -10.22010 -66.64462 9091 ft 263 kts 287°
2026-04-20 05:24 -10.21509 -66.66239 8843 ft 261 kts 287°
2026-04-20 05:24 -10.21012 -66.68003 8597 ft 259 kts 287°
2026-04-20 05:25 -10.20519 -66.69752 8351 ft 257 kts 287°
2026-04-20 05:25 -10.20036 -66.71466 8117 ft 255 kts 287°
2026-04-20 05:25 -10.19544 -66.73211 7866 ft 253 kts 287°
2026-04-20 05:25 -10.19063 -66.74921 7631 ft 251 kts 287°
2026-04-20 05:26 -10.18584 -66.76619 7390 ft 249 kts 287°
2026-04-20 05:26 -10.18115 -66.78283 7159 ft 248 kts 287°
2026-04-20 05:26 -10.17643 -66.79958 6926 ft 246 kts 287°
2026-04-20 05:26 -10.17173 -66.81624 6699 ft 245 kts 287°
2026-04-20 05:27 -10.16865 -66.83340 6471 ft 251 kts 278°
2026-04-20 05:27 -10.16709 -66.85127 6253 ft 257 kts 276°
2026-04-20 05:27 -10.16575 -66.86957 6017 ft 263 kts 276°
2026-04-20 05:27 -10.16439 -66.88812 5782 ft 264 kts 276°
2026-04-20 05:28 -10.16298 -66.90661 5530 ft 261 kts 276°
2026-04-20 05:28 -10.16153 -66.92490 5287 ft 259 kts 277°
2026-04-20 05:28 -10.16005 -66.94303 5044 ft 256 kts 277°
2026-04-20 05:28 -10.15855 -66.96097 4805 ft 254 kts 277°
2026-04-20 05:29 -10.15704 -66.97875 4559 ft 252 kts 277°
2026-04-20 05:29 -10.15552 -66.99641 4312 ft 250 kts 277°
2026-04-20 05:29 -10.15400 -67.01391 4070 ft 248 kts 277°
2026-04-20 05:29 -10.15248 -67.03131 3830 ft 247 kts 277°
2026-04-20 05:30 -10.15096 -67.04861 3581 ft 245 kts 277°
2026-04-20 05:30 -10.14944 -67.06581 3345 ft 244 kts 277°
2026-04-20 05:30 -10.14793 -67.08287 3154 ft 241 kts 277°
2026-04-20 05:30 -10.14644 -67.09972 3038 ft 239 kts 277°
2026-04-20 05:31 -10.14497 -67.11634 2980 ft 240 kts 277°
2026-04-20 05:31 -10.14343 -67.13354 2941 ft 243 kts 277°
2026-04-20 05:31 -10.14190 -67.15075 2913 ft 246 kts 277°
2026-04-20 05:31 -10.14037 -67.16783 2909 ft 246 kts 277°
2026-04-20 05:32 -10.13884 -67.18509 2901 ft 245 kts 277°
2026-04-20 05:32 -10.13732 -67.20223 2900 ft 243 kts 277°
2026-04-20 05:32 -10.13580 -67.21928 2899 ft 242 kts 277°
2026-04-20 05:32 -10.13428 -67.23624 2906 ft 241 kts 277°
2026-04-20 05:33 -10.13277 -67.25314 2900 ft 240 kts 278°
2026-04-20 05:33 -10.13126 -67.27003 2908 ft 240 kts 277°
2026-04-20 05:33 -10.12974 -67.28700 2908 ft 242 kts 278°
2026-04-20 05:33 -10.12821 -67.30404 2907 ft 243 kts 277°
2026-04-20 05:34 -10.12667 -67.32117 2909 ft 245 kts 277°
2026-04-20 05:34 -10.12513 -67.33843 2915 ft 246 kts 277°
2026-04-20 05:34 -10.12200 -67.37318 2905 ft 247 kts 278°
2026-04-20 05:35 -10.12044 -67.39058 2908 ft 247 kts 278°
2026-04-20 05:35 -10.11888 -67.40796 2902 ft 248 kts 278°
2026-04-20 05:35 -10.11732 -67.42536 2905 ft 247 kts 278°
2026-04-20 05:35 -10.11576 -67.44275 2907 ft 247 kts 278°
2026-04-20 05:36 -10.11419 -67.46012 2905 ft 247 kts 278°
2026-04-20 05:36 -10.11263 -67.47750 2904 ft 247 kts 278°
2026-04-20 05:36 -10.11106 -67.49486 2899 ft 247 kts 278°
2026-04-20 05:36 -10.10950 -67.51217 2904 ft 246 kts 278°
2026-04-20 05:37 -10.10795 -67.52946 2902 ft 246 kts 277°
2026-04-20 05:37 -10.10639 -67.54673 2900 ft 245 kts 277°
2026-04-20 05:37 -10.10483 -67.56395 2905 ft 245 kts 278°
2026-04-20 05:37 -10.10326 -67.58118 2905 ft 245 kts 278°
2026-04-20 05:38 -10.10172 -67.59819 2906 ft 245 kts 277°
2026-04-20 05:38 -10.10017 -67.61542 2910 ft 245 kts 277°
2026-04-20 05:38 -10.09861 -67.63266 2911 ft 246 kts 278°
2026-04-20 05:38 -10.09704 -67.64996 2906 ft 247 kts 277°
2026-04-20 05:39 -10.09547 -67.66727 2909 ft 245 kts 278°
2026-04-20 05:39 -10.09391 -67.68450 2907 ft 244 kts 277°
2026-04-20 05:39 -10.09236 -67.70163 2904 ft 243 kts 277°
2026-04-20 05:39 -10.09081 -67.71874 2911 ft 243 kts 278°
2026-04-20 05:40 -10.08926 -67.73576 2911 ft 242 kts 278°
2026-04-20 05:40 -10.08771 -67.75282 2918 ft 242 kts 277°
2026-04-20 05:40 -10.08616 -67.76987 2928 ft 244 kts 277°
2026-04-20 05:40 -10.08459 -67.78705 2920 ft 245 kts 278°
2026-04-20 05:41 -10.08301 -67.80434 2919 ft 246 kts 278°
2026-04-20 05:41 -10.08143 -67.82167 2929 ft 247 kts 277°
2026-04-20 05:41 -10.07990 -67.83925 2991 ft 255 kts 278°
2026-04-20 05:41 -10.07822 -67.85741 2921 ft 259 kts 278°
2026-04-20 05:42 -10.07658 -67.87519 2901 ft 253 kts 278°
2026-04-20 05:42 -10.07495 -67.89284 2901 ft 249 kts 278°
2026-04-20 05:42 -10.07337 -67.91007 2873 ft 241 kts 278°
2026-04-20 05:42 -10.07185 -67.92676 2900 ft 236 kts 278°
2026-04-20 05:43 -10.07030 -67.94366 2929 ft 244 kts 278°
2026-04-20 05:43 -10.06871 -67.96094 2933 ft 247 kts 278°
2026-04-20 05:43 -10.06712 -67.97826 2917 ft 246 kts 278°
2026-04-20 05:43 -10.06553 -67.99559 2914 ft 245 kts 278°
2026-04-20 05:44 -10.06044 -68.01177 2908 ft 240 kts 306°
2026-04-20 05:44 -10.04832 -68.02304 2915 ft 236 kts 330°
2026-04-20 05:44 -10.03353 -68.02873 2910 ft 220 kts 346°
2026-04-20 05:44 -10.01906 -68.03193 2892 ft 205 kts 346°
2026-04-20 05:45 -10.00543 -68.03496 2933 ft 198 kts 346°
2026-04-20 05:45 -9.99669 -68.03691 2924 ft 190 kts 346°
2026-04-20 05:45 -9.98419 -68.03971 2911 ft 179 kts 347°
2026-04-20 05:45 -9.97183 -68.03919 2920 ft 177 kts 14°
2026-04-20 05:46 -9.96111 -68.03384 2940 ft 168 kts 31°
2026-04-20 05:46 -9.95303 -68.02514 2930 ft 171 kts 50°
2026-04-20 05:46 -9.94457 -68.01243 2949 ft 159 kts 51°
2026-04-20 05:46 -9.94052 -68.00613 2889 ft 157 kts 51°
2026-04-20 05:47 -9.93450 -67.99671 2762 ft 161 kts 52°
2026-04-20 05:47 -9.92847 -67.98723 2573 ft 159 kts 52°
2026-04-20 05:47 -9.92250 -67.97785 2371 ft 157 kts 52°
2026-04-20 05:47 -9.91664 -67.96864 2152 ft 154 kts 52°
2026-04-20 05:48 -9.91088 -67.95960 1976 ft 152 kts 52°
2026-04-20 05:48 -9.90513 -67.95058 1782 ft 153 kts 52°
2026-04-20 05:48 -9.89941 -67.94160 1569 ft 150 kts 53°
2026-04-20 05:48 -9.89385 -67.93289 1357 ft 149 kts 54°
2026-04-20 05:49 -9.88818 -67.92415 1144 ft 147 kts 55°
2026-04-20 05:49 -9.88275 -67.91554 962 ft 142 kts 56°
2026-04-20 05:49 -9.87747 -67.90719 764 ft 139 kts 56°
2026-04-20 05:49 -9.87232 -67.89906 640 ft 133 kts 56°
2026-04-20 05:50 -9.86844 -67.89302 627 ft 51 kts 57°
2026-04-20 05:50 -9.86768 -67.89278 624 ft 9 kts 269°
2026-04-20 05:50 -9.86768 -67.89311 632 ft 2 kts 272°
2026-04-20 05:50 -9.86765 -67.89330 629 ft 4 kts 279°
2026-04-20 05:51 -9.86760 -67.89362 624 ft 6 kts 279°
2026-04-20 05:51 -9.86753 -67.89401 625 ft 8 kts 279°